Regional Weather Roundup
Issued by NWS

Home | Current Version | Previous Version | Text Only | Print | Product List | Glossary On
Versions: 1 2 3 4 5 6 7 8 9 10 11 12 13 14 15 16 17 18 19 20 21 22 23 24 25 26 27 28 29 30 31 32 33 34 35 36 37 38 39 40 41 42 43 44 45 46 47 48 49 50
000
ASUS42 KFFC 200103
RWRGA
WEATHER ROUNDUP FOR GEORGIA
NATIONAL WEATHER SERVICE PEACHTREE CITY GA
800 PM EST FRI DEC 19 2014

NOTE: "FAIR" INDICATES FEW OR NO CLOUDS BELOW 12,000 FEET WITH NO
SIGNIFICANT WEATHER AND/OR OBSTRUCTIONS TO VISIBILITY.

* = USE WITH CAUTION. THE STATIONS MARKED WITH AN ASTERISK MAY NOT
REPORT WEATHER SUCH AS PRECIPITATION, FOG, OR THUNDER AND ARE NOT
QUALITY CONTROLLED BY NWS.

THE REMARK "TC" DENOTES TEMPERATURE READING IN DEGREES CELSIUS.

GAZ001>058-200200-
NORTH GEORGIA

CITY           SKY/WX    TMP DP  RH WIND       PRES   REMARKS
ATLANTA        CLOUDY    47  33  58 NW8       30.13S
ATHENS         CLOUDY    49  40  71 NE6       30.12R
CHAMBLEE       CLOUDY    45  33  63 W6        30.14R
PEACHTREE CITY CLOUDY    48  35  60 NW7       30.15R
ROME           CLOUDY    43  31  62 CALM      30.16S
WEST ATLANTA   CLOUDY    46  31  55 NW8       30.15R
GAINESVILLE    CLOUDY    48  37  65 W3        30.13S
CARTERSVILLE   CLOUDY    43  30  60 CALM      30.17S


CITY           SKY/WX    TMP DP  RH WIND       PRES   REMARKS
DALTON*        CLOUDY    43  32  65 N9        30.16F
LAWRENCEVILLE* CLEAR     48  30  49 CALM      30.11F
MARIETTA       CLOUDY    44  32  63 NW6       30.15R
KENNESAW*      PTCLDY    43  28  56 N5        30.17R
$$

GAZ059>098-102>109-200200-
CENTRAL GEORGIA

CITY           SKY/WX    TMP DP  RH WIND       PRES   REMARKS
AUGUSTA-BUSH   MOCLDY    49  41  74 CALM      30.12R
AUGUSTA-DANIEL MOCLDY    56  41  57 CALM      30.13R
COLUMBUS       CLOUDY    51  38  60 NW6       30.15R
MACON          CLOUDY    50  42  74 CALM      30.14R
ROBINS AFB     CLOUDY    51  41  70 SE2       30.13R


CITY           SKY/WX    TMP DP  RH WIND       PRES   REMARKS
LAGRANGE*      CLOUDY    52  42  67 NW3       30.16R
SYLVANIA*      MOCLDY    48  46  95 CALM      30.13R
MILLEDGEVILLE* CLOUDY    50  45  81 CALM      30.13S
$$

GAZ099>101-110>166-200200-
SOUTH GEORGIA

CITY           SKY/WX    TMP DP  RH WIND       PRES   REMARKS
SAVANNAH       MOCLDY    51  43  74 E5        30.12R
VALDOSTA       CLOUDY    54  45  71 W3        30.12R
ALMA           MOCLDY    49  43  80 CALM      30.12R
ST SIMONS      CLEAR     54  47  77 N3        30.11R
FT STEWART     PTCLDY    48  45  88 CALM      30.11R
ALBANY         CLOUDY    52  42  69 NW3       30.16R
HUNTER AFB     PTCLDY    53  47  78 E2        30.10R
MOODY AFB      CLOUDY    53  45  74 NW3       30.12R
BRUNSWICK      CLEAR     52  43  71 CALM      30.11R


CITY           SKY/WX    TMP DP  RH WIND       PRES   REMARKS
BAINBRIDGE*    CLOUDY    59  46  63 CALM      30.15R
MOULTRIE*      CLOUDY    54  48  82 CALM      30.15R
VIDALIA*       MOCLDY    48  45  87 CALM      30.12R
WAYCROSS*      MOCLDY    54  48  81 CALM      30.12R
DOUGLAS*       CLOUDY    54  43  66 CALM      30.13R
$$


USA.gov is the U.S. government's official web portal to all federal, state and local government web resources and services.